User: anonymous
Location: Caltech
(34.1382°N, 118.1253°W)
Time: 06:45:35
(UTC-07:00)
Language:

Cosmos 1758 Rocket - Orbit

View from above orbital plane
View from above orbital plane
View from above satellite
View from above satellite

Ground track
Ground track

The orbit data is extracted from the following two-line orbital elements,

1 16792U 86046B   14233.20360164  .00000180  00000-0  19273-4 0  5456
2 16792 082.4807 092.2472 0025999 088.0602 051.3325 14.82598865522082
Epoch (UTC): 21 August 2014 04:53:11
Eccentricity: 0.0025999
inclination: 82.4807°
perigee height: 603 km
apogee height: 639 km
right ascension of ascending node: 92.2472°
argument of perigee: 88.0602°
revolutions per day: 14.82598865
mean anomaly at epoch: 51.3325°
orbit number at epoch: 52208

The dashed part of the orbit path shows where the satellite is in the earth's shadow,  

DLR